TimeCDT,TemperatureF,Dew PointF,Humidity,Sea Level PressureIn,VisibilityMPH,Wind Direction,Wind SpeedMPH,Gust SpeedMPH,PrecipitationIn,Events,Conditions,WindDirDegrees,DateUTC
12:58 AM,64.6,57.0,76,30.05,10.0,SW,10.4,-,,,Clear,220,2013-08-17 05:58:00
1:58 AM,63.7,56.8,78,30.04,10.0,SW,8.1,-,,,Clear,220,2013-08-17 06:58:00
2:58 AM,62.8,56.8,81,30.04,10.0,SSW,8.1,-,,,Clear,200,2013-08-17 07:58:00
3:58 AM,59.0,56.5,91,30.03,10.0,SSW,8.1,-,,,Clear,200,2013-08-17 08:58:00
4:58 AM,58.6,56.7,93,30.03,10.0,SSW,8.1,-,,,Clear,200,2013-08-17 09:58:00
5:58 AM,57.9,57.0,97,30.03,10.0,SSW,8.1,-,,,Clear,200,2013-08-17 10:58:00
6:58 AM,58.1,57.9,99,30.02,10.0,South,10.4,-,,,Clear,170,2013-08-17 11:58:00
7:58 AM,61.2,59.4,94,30.02,10.0,South,12.7,-,,,Clear,180,2013-08-17 12:58:00
8:58 AM,65.3,60.3,84,30.02,10.0,South,12.7,-,,,Clear,190,2013-08-17 13:58:00
9:58 AM,69.3,61.2,75,30.02,10.0,South,12.7,-,,,Clear,190,2013-08-17 14:58:00
10:58 AM,71.2,62.1,73,30.03,10.0,South,13.8,-,,,Clear,180,2013-08-17 15:58:00
11:58 AM,74.3,63.5,69,30.02,10.0,South,15.0,-,,,Clear,190,2013-08-17 16:58:00
12:58 PM,75.4,64.0,68,30.00,10.0,SSW,16.1,-,,,Clear,200,2013-08-17 17:58:00
1:58 PM,78.6,64.2,61,29.98,10.0,South,19.6,28.8,,,Clear,190,2013-08-17 18:58:00
2:58 PM,80.6,64.6,58,29.97,10.0,South,17.3,26.5,,,Clear,190,2013-08-17 19:58:00
3:58 PM,81.9,65.5,57,29.96,10.0,South,15.0,-,,,Clear,180,2013-08-17 20:58:00
4:58 PM,81.7,65.3,57,29.94,10.0,SSW,17.3,-,,,Clear,200,2013-08-17 21:58:00
5:58 PM,81.3,66.2,60,29.94,10.0,South,17.3,-,,,Clear,180,2013-08-17 22:58:00
6:58 PM,80.6,66.2,61,29.92,10.0,South,17.3,25.3,,,Clear,180,2013-08-17 23:58:00
7:58 PM,78.4,66.6,67,29.92,10.0,South,11.5,-,,,Clear,180,2013-08-18 00:58:00
8:58 PM,74.3,66.2,76,29.92,10.0,South,10.4,-,,,Clear,170,2013-08-18 01:58:00
9:58 PM,72.5,66.0,80,29.93,10.0,South,10.4,-,,,Clear,190,2013-08-18 02:58:00
10:58 PM,73.0,66.0,79,29.92,10.0,South,12.7,-,,,Clear,190,2013-08-18 03:58:00
11:58 PM,71.6,66.0,82,29.93,10.0,SSW,9.2,-,,,Clear,200,2013-08-18 04:58:00